Content
SEND FEEDBACK

Daily
Averages
Monthly
Summary
United States of America

JAMESTOWN, PENNSYLVANIA


Home > North America > United States > Pennsylvania
Elevation: 333 meters     Latitude: 41 30N     Longitude: 080 28W

WEATHER
 
SELECT A DAY
Number of Records: 216,191;   Date Range: 5/22/97 - 10/23/14
 
SHARE

PRINT THIS DATA

[ ← Previous Day ]
WEATHER ALMANAC - 23 JANUARY, 2013
[ Next Day → ]
[ °F ]   °C
Weather ElementAverageHighLow
Temperature-14.1 °C-11.1 °C (3:53 pm)-16.1 °C (7:53 am)
Dewpoint-17.4 °C-14.4 °C (8:53 pm)-18.3 °C (4:53 am)
Humidity77 %85 % (4:13 am)59 % (1:53 pm)
Barometer1021.3 hPa1024.7 hPa (8:53 am)1016.6 hPa (10:18 pm)
Wind Speed11.9 km/h22.2 km/h (12:53 pm)
Wind Gust33.3 km/h (1:33 pm)
Weather ElementAverage
Visibility7.9 km
Wind DirectionSW (225.4 °)

Weather ElementTotal
Precipitation---
Heating Degree Days31.9 (Base 18.3)
Averaged from 50 records on 23 January, 2013
WEATHER CONDITIONS BREAKOUT
WIND DIRECTION BREAKOUT
WEATHER BY HOUR - 23 JANUARY, 2013
[ °F ]   °C
Local TimeTemperatureDewpointHumidityBarometerVisibilityWind DirectionWind SpeedGust SpeedPrecipitationEventsConditions
1:02 AM-15 °C-18 °C78 %1020.3 hPa1.9 kmSW (230°)9.3 km/h0 mmSnowLight Snow
1:35 AM-15 °C-18 °C78 %1020.3 hPa4 kmWSW (240°)13 km/h0 mmSnowLight Snow
1:53 AM-15 °C-17.8 °C80 %1023.7 hPa3.2 kmSW (230°)13 km/h0 mmSnowLight Snow
1:57 AM-15 °C-18 °C78 %1020.3 hPa2.9 kmWSW (240°)13 km/h0 mmSnowLight Snow
2:22 AM-15 °C-18 °C78 %1020.7 hPa3.2 kmWSW (240°)11.1 km/h0 mmSnowLight Snow
2:29 AM-15 °C-18 °C78 %1021 hPa2.4 kmSW (230°)11.1 km/h0 mmSnowLight Snow
2:53 AM-15 °C-17.8 °C80 %1024 hPa2.9 kmSW (220°)9.3 km/h0 mmSnowLight Snow
3:53 AM-15 °C-17.8 °C80 %1023.7 hPa1.6 kmSW (230°)11.1 km/h0 mmSnowLight Snow
4:13 AM-16 °C-18 °C85 %1020.7 hPa4 kmWSW (240°)11.1 km/h0 mmSnowLight Snow
4:25 AM-16 °C-18 °C85 %1020.7 hPa2.9 kmSW (220°)13 km/h0 mmSnowLight Snow
4:43 AM-16 °C-18 °C85 %1020.7 hPa3.2 kmSW (230°)11.1 km/h0 mmSnowLight Snow
4:53 AM-15.6 °C-18.3 °C80 %1023.7 hPa4.8 kmSW (230°)9.3 km/h0 mmSnowLight Snow
5:12 AM-16 °C-18 °C85 %1020.7 hPa4 kmSW (220°)11.1 km/h0 mmSnowLight Snow
5:36 AM-16 °C-18 °C85 %1020.7 hPa6.4 kmSW (230°)13 km/h0 mmSnowLight Snow
5:51 AM-16 °C-18 °C85 %1020.7 hPa2.9 kmSW (230°)13 km/h0 mmSnowLight Snow
5:52 AM-15.6 °C-18.3 °C80 %1024 hPa2.9 kmSW (230°)11.1 km/h0 mmSnowLight Snow
6:10 AM-16 °C-18 °C85 %1021 hPa3.2 kmSW (230°)13 km/h0 mmSnowLight Snow
6:40 AM-16 °C-18 °C85 %1021 hPa4.8 kmSW (230°)13 km/h0 mmSnowLight Snow
6:53 AM-15.6 °C-18.3 °C80 %1024.4 hPa4.8 kmSW (230°)11.1 km/h0 mmSnowLight Snow
7:02 AM-16 °C-18 °C85 %1021 hPa4 kmSW (230°)13 km/h0 mmSnowLight Snow
7:22 AM-16 °C-18 °C85 %1021 hPa8 kmSW (230°)9.3 km/h0 mmSnowLight Snow
7:53 AM-16.1 °C-18.3 °C84 %1024.4 hPa4 kmSW (220°)7.4 km/h0 mmSnowLight Snow
8:16 AM-16 °C-18 °C85 %1021 hPa4.8 kmSW (220°)9.3 km/h0 mmOvercast
8:53 AM-15.6 °C-17.8 °C84 %1024.7 hPa4.8 kmSW (220°)11.1 km/h0 mmSnowLight Snow
9:07 AM-15 °C-18 °C78 %1021.3 hPa4 kmSW (220°)13 km/h0 mmSnowLight Snow
9:34 AM-14 °C-18 °C72 %1021.7 hPa4 kmWSW (240°)11.1 km/h0 mmSnowLight Snow
9:41 AM-14 °C-18 °C72 %1021.7 hPa4.8 kmSW (230°)13 km/h0 mmSnowLight Snow
9:53 AM-14.4 °C-17.8 °C76 %1024.7 hPa4.8 kmSW (230°)11.1 km/h0 mmSnowLight Snow
10:25 AM-14 °C-18 °C72 %1021.7 hPa16.1 kmWSW (240°)13 km/h0 mmOvercast
10:53 AM-13.3 °C-17.8 °C70 %1024.7 hPa16.1 kmWSW (240°)18.5 km/h0 mmOvercast
11:00 AM-13 °C-18 °C67 %1021.7 hPa16.1 kmWSW (250°)18.5 km/hOvercast
11:53 AM-12.8 °C-16.7 °C73 %1024.4 hPa6.4 kmWSW (240°)13 km/h0 mmSnowLight Snow
12:24 PM-12 °C-17 °C67 %1020.3 hPa8 kmSW (230°)13 km/h0 mmSnowLight Snow
12:53 PM-11.7 °C-17.8 °C61 %1023.4 hPa16.1 kmWSW (250°)22.2 km/h27.8 km/h0 mmOvercast
1:33 PM-12 °C-18 °C62 %1019.3 hPa16.1 kmWSW (240°)16.7 km/h33.3 km/hMostly Cloudy
1:53 PM-11.7 °C-18.3 °C59 %1022.4 hPa16.1 kmWest (260°)16.7 km/hOvercast
2:53 PM-11.7 °C-17.8 °C61 %1022.4 hPa16.1 kmWest (260°)18.5 km/hOvercast
3:53 PM-11.1 °C-17.2 °C61 %1021.7 hPa12.9 kmWSW (240°)9.3 km/h0 mmOvercast
4:33 PM-12 °C-17 °C67 %1018.6 hPa12.9 kmSW (220°)13 km/hOvercast
4:40 PM-12 °C-17 °C67 %1018.6 hPa16.1 kmSW (220°)7.4 km/hOvercast
4:53 PM-11.7 °C-17.2 °C64 %1021.7 hPa16.1 kmSW (230°)11.1 km/hOvercast
5:53 PM-12.2 °C-17.2 °C67 %1021.3 hPa16.1 kmSSW (210°)7.4 km/hOvercast
6:53 PM-12.2 °C-15.6 °C76 %1021 hPa14.5 kmSouth (190°)9.3 km/hOvercast
7:53 PM-12.2 °C-15 °C80 %1020.7 hPa16.1 kmSSW (200°)11.1 km/hOvercast
8:53 PM-12.2 °C-14.4 °C84 %1020.7 hPa6.4 kmSouth (190°)9.3 km/h0 mmSnowLight Snow
9:44 PM-13 °C-15 °C85 %1016.9 hPa6.4 kmSouth (180°)9.3 km/h0 mmSnowLight Snow
9:53 PM-12.8 °C-15 °C84 %1020 hPa8 kmSouth (190°)9.3 km/h0 mmOvercast
10:18 PM-13 °C-15 °C85 %1016.6 hPa11.3 kmSouth (190°)9.3 km/hOvercast
10:53 PM-13.3 °C-15.6 °C83 %1019.6 hPa12.9 kmSouth (190°)9.3 km/hMostly Cloudy
11:53 PM-12.8 °C-15 °C84 %1019 hPa11.3 kmSouth (190°)9.3 km/h0 mmOvercast
Hourly data recorded from KGKJ, located 0 kilometers away from Jamestown, Pennsylvania







STORIES FROM OUR PARTNERS